DW0307 Weather Reports


Display with metric or nautical units.
time (UTC)temp
F
wind
direction
speed
MPH
gust
MPH
rain 1hr
in
rain 24hr
in
rain mn
in
humidity
%
barometer
mb
20260904080057 63 292 3.0 8.0 0.00 0.00 0.00 72 1019.0
20260904074553 63 317 2.0 14.0 0.00 0.00 0.00 73 1018.9
20260904073053 63 263 10.0 13.0 0.00 0.00 0.00 75 1018.9
20260904071601 61 272 2.0 12.0 0.00 0.00 0.00 76 1018.9
20260904070059 60 290 2.0 8.0 0.00 0.00 0.00 79 1018.6
20260904064614 59 80 2.0 4.0 0.00 0.00 0.00 79 1018.5
20260904063059 58 249 2.0 5.0 0.00 0.00 0.00 80 1018.8
20260904061600 58 18 5.0 8.0 0.00 0.00 0.00 80 1018.5
20260904060057 57 26 2.0 7.0 0.00 0.00 0.00 80 1018.7
20260904054554 57 38 4.0 6.0 0.00 0.00 0.00 81 1018.4
20260904053057 57 61 3.0 5.0 0.00 0.00 0.00 83 1018.4
20260904051550 56 200 2.0 5.0 0.00 0.00 0.00 85 1018.4
20260904050112 55 262 3.0 5.0 0.00 0.00 0.00 86 1018.4
20260904044556 54 43 0.0 6.0 0.00 0.00 0.00 87 1018.4
20260904043102 53 70 2.0 7.0 0.00 0.00 0.00 87 1018.6
20260904041606 52 74 1.0 4.0 0.00 0.00 0.00 88 1018.3
20260904040051 51 0 1.0 4.0 0.00 0.00 0.00 88 1018.3
20260904034611 51 96 3.0 4.0 0.00 0.00 0.00 88 1018.2
20260904033059 51 96 0.0 3.0 0.00 0.00 0.00 88 1018.3
20260904031554 50 0 0.0 4.0 0.00 0.00 0.00 88 1018.3
20260904030052 49 90 3.0 6.0 0.00 0.00 0.00 88 1018.4
20260904024550 48 261 1.0 3.0 0.00 0.03 0.00 88 1018.4
20260904023047 48 0 0.0 4.0 0.00 0.03 0.00 88 1018.4
20260904021553 48 244 0.0 4.0 0.00 0.03 0.00 87 1018.7
20260904020051 49 42 1.0 4.0 0.00 0.03 0.00 88 1018.6
20260904014553 48 0 1.0 4.0 0.00 0.03 0.00 87 1018.8
20260904013054 48 0 0.0 4.0 0.00 0.03 0.00 87 1018.8
20260904011551 48 239 0.0 5.0 0.00 0.03 0.00 87 1019.2
20260904010057 48 0 0.0 4.0 0.00 0.03 0.00 86 1019.2
20260904004554 48 0 1.0 4.0 0.00 0.03 0.00 87 1019.3
20260904003051 48 244 1.0 4.0 0.00 0.03 0.00 87 1019.3
20260904001558 47 0 1.0 3.0 0.00 0.03 0.00 86 1019.5
20260903234552 48 5 4.0 7.0 0.00 0.03 0.00 87 1019.3
20260903233103 47 306 1.0 3.0 0.00 0.03 0.00 86 1019.5
20260903231600 48 13 1.0 4.0 0.00 0.03 0.00 85 1019.6
20260903230105 48 312 1.0 5.0 0.00 0.03 0.00 86 1019.5
20260903224551 49 0 0.0 5.0 0.00 0.03 0.00 86 1019.5
20260903223111 49 299 2.0 4.0 0.00 0.03 0.00 85 1019.5
20260903221552 50 303 1.0 4.0 0.00 0.03 0.00 85 1019.8
20260903214553 51 336 1.0 8.0 0.00 0.03 0.03 84 1019.7
20260903213057 50 346 3.0 5.0 0.00 0.03 0.03 85 1019.5
20260903211601 50 322 2.0 7.0 0.00 0.03 0.03 85 1019.6
20260903210054 50 0 0.0 4.0 0.00 0.03 0.03 83 1019.6
20260903204604 50 234 2.0 4.0 0.00 0.03 0.03 82 1019.5
20260903203056 51 236 2.0 4.0 0.00 0.03 0.03 81 1019.6
20260903201554 52 0 0.0 3.0 0.00 0.03 0.03 81 1019.7
20260903200051 53 271 2.0 4.0 0.00 0.03 0.03 79 1019.7
20260903194553 55 37 2.0 5.0 0.00 0.03 0.03 80 1019.6
20260903193103 55 294 1.0 3.0 0.00 0.03 0.03 78 1019.6
20260903191600 56 292 1.0 3.0 0.00 0.03 0.03 78 1019.6
20260903190051 57 284 2.0 4.0 0.00 0.03 0.03 77 1019.9
20260903184552 57 235 0.0 3.0 0.00 0.03 0.03 78 1019.9
20260903183114 57 311 4.0 9.0 0.00 0.03 0.03 76 1019.8
20260903181554 60 352 0.0 3.0 0.00 0.03 0.03 71 1019.6
20260903180057 62 360 1.0 4.0 0.00 0.03 0.03 70 1019.3
20260903174551 62 9 3.0 7.0 0.00 0.03 0.03 71 1019.2
20260903173058 61 275 1.0 4.0 0.00 0.03 0.03 69 1019.1
20260903171602 63 272 2.0 7.0 0.00 0.03 0.03 66 1018.9
20260903170055 64 249 9.0 13.0 0.00 0.03 0.03 64 1018.9
20260903164555 65 257 7.0 12.0 0.00 0.03 0.03 63 1018.7
20260903163102 66 260 8.0 12.0 0.00 0.03 0.03 63 1018.7
20260903161615 67 259 10.0 18.0 0.00 0.03 0.03 62 1018.8
20260903160053 67 269 12.0 19.0 0.00 0.03 0.03 62 1018.7
20260903154550 67 263 11.0 19.0 0.00 0.03 0.03 61 1018.8
20260903153051 68 252 14.0 20.0 0.00 0.03 0.03 60 1018.5
20260903151550 68 245 13.0 19.0 0.00 0.03 0.03 59 1018.7
20260903144558 69 252 16.0 22.0 0.00 0.03 0.03 58 1019.1
20260903143054 69 246 14.0 23.0 0.00 0.03 0.03 58 1019.0
20260903141549 70 260 16.0 22.0 0.00 0.03 0.03 56 1018.9
20260903140054 70 243 16.0 25.0 0.00 0.03 0.03 56 1019.0
20260903134601 71 252 17.0 24.0 0.00 0.03 0.03 53 1018.9
20260903133100 71 236 14.0 20.0 0.00 0.03 0.03 54 1018.9
20260903131554 72 245 12.0 25.0 0.00 0.03 0.03 53 1019.1
20260903130052 71 85 3.0 9.0 0.00 0.03 0.03 53 1019.2
20260903124603 71 76 4.0 11.0 0.00 0.03 0.03 57 1019.3
20260903123053 70 27 1.0 10.0 0.00 0.03 0.03 57 1019.3
20260903121556 71 43 6.0 12.0 0.00 0.03 0.03 56 1019.3
20260903120049 73 50 8.0 13.0 0.00 0.03 0.03 54 1019.2
20260903114601 73 33 6.0 10.0 0.00 0.03 0.03 54 1019.3
20260903113053 73 250 5.0 14.0 0.00 0.03 0.03 51 1019.4
20260903111550 74 247 6.0 15.0 0.00 0.03 0.03 54 1019.7
20260903110059 72 225 7.0 12.0 0.00 0.03 0.03 54 1019.9
20260903104555 70 93 3.0 7.0 0.00 0.03 0.03 60 1020.1
20260903103052 70 56 1.0 6.0 0.00 0.03 0.03 59 1020.2
20260903101600 70 30 4.0 9.0 0.00 0.03 0.03 56 1020.2
20260903094610 71 38 5.0 10.0 0.00 0.03 0.03 55 1020.2
20260903093053 70 77 3.0 8.0 0.00 0.03 0.03 56 1020.4
20260903091607 71 89 3.0 8.0 0.00 0.03 0.03 56 1020.6
20260903090058 72 221 0.0 5.0 0.00 0.03 0.03 60 1020.6
20260903084554 68 304 1.0 6.0 0.00 0.03 0.03 67 1020.7
20260903083109 66 124 0.0 4.0 0.00 0.03 0.03 69 1020.8
20260903081601 65 113 0.0 2.0 0.00 0.03 0.03 72 1020.7